Time,TemperatureF,DewpointF,PressureIn,WindDirection,WindDirectionDegrees,WindSpeedMPH,WindSpeedGustMPH,Humidity,HourlyPrecipIn,Conditions,Clouds,dailyrainin,SoftwareType,DateUTC
2013-07-24 00:01:00,61.3,56.4,29.96,East,84,0.0,0.0,84,0.00,,,0.00,WeatherCatV1.20B785,2013-07-24 05:01:00,
2013-07-24 00:06:00,61.2,56.7,29.96,East,84,0.0,0.0,85,0.00,,,0.00,WeatherCatV1.20B785,2013-07-24 05:06:00,
2013-07-24 00:11:00,61.0,56.5,29.96,East,84,0.0,0.0,85,0.00,,,0.00,WeatherCatV1.20B785,2013-07-24 05:11:00,
2013-07-24 00:16:00,60.9,56.4,29.97,East,84,0.0,0.0,85,0.00,,,0.00,WeatherCatV1.20B785,2013-07-24 05:16:00,
2013-07-24 00:21:00,60.7,56.2,29.96,East,84,0.0,0.0,85,0.00,,,0.00,WeatherCatV1.20B785,2013-07-24 05:21:00,
2013-07-24 00:26:00,60.6,56.4,29.97,East,84,0.0,0.0,86,0.00,,,0.00,WeatherCatV1.20B785,2013-07-24 05:26:00,
2013-07-24 00:31:00,60.4,56.5,29.97,East,84,0.0,0.0,87,0.00,,,0.00,WeatherCatV1.20B785,2013-07-24 05:31:00,
2013-07-24 00:36:00,60.3,56.4,29.97,East,84,0.0,0.0,87,0.00,,,0.00,WeatherCatV1.20B785,2013-07-24 05:36:00,
2013-07-24 00:41:00,60.1,56.2,29.96,East,84,0.0,0.0,87,0.00,,,0.00,WeatherCatV1.20B785,2013-07-24 05:41:00,
2013-07-24 00:46:00,60.0,56.4,29.96,East,84,0.0,0.0,88,0.00,,,0.00,WeatherCatV1.20B785,2013-07-24 05:46:00,
2013-07-24 00:51:00,59.9,56.3,29.96,East,84,0.0,0.0,88,0.00,,,0.00,WeatherCatV1.20B785,2013-07-24 05:51:00,
2013-07-24 00:56:00,59.9,56.7,29.97,East,84,0.0,0.0,89,0.00,,,0.00,WeatherCatV1.20B785,2013-07-24 05:56:00,
2013-07-24 01:01:00,59.9,56.7,29.97,East,84,0.0,0.0,89,0.00,,,0.00,WeatherCatV1.20B785,2013-07-24 06:01:00,
2013-07-24 01:07:00,59.9,56.3,29.97,East,84,0.0,0.0,88,0.00,,,0.00,WeatherCatV1.20B785,2013-07-24 06:07:00,
2013-07-24 01:12:00,60.0,56.4,29.97,East,84,0.0,0.0,88,0.00,,,0.00,WeatherCatV1.20B785,2013-07-24 06:12:00,
2013-07-24 01:16:00,60.1,56.5,29.97,East,84,0.0,0.0,88,0.00,,,0.00,WeatherCatV1.20B785,2013-07-24 06:16:00,
2013-07-24 01:21:00,60.0,56.4,29.97,East,84,0.0,0.0,88,0.00,,,0.00,WeatherCatV1.20B785,2013-07-24 06:21:00,
2013-07-24 01:26:00,60.0,56.7,29.97,East,84,0.0,0.0,89,0.00,,,0.00,WeatherCatV1.20B785,2013-07-24 06:26:00,
2013-07-24 01:31:00,60.0,56.7,29.97,East,84,0.0,0.0,89,0.00,,,0.00,WeatherCatV1.20B785,2013-07-24 06:31:00,
2013-07-24 01:36:00,60.0,56.4,29.97,East,84,0.0,0.0,88,0.00,,,0.00,WeatherCatV1.20B785,2013-07-24 06:36:00,
2013-07-24 01:41:00,60.0,56.4,29.97,East,84,0.0,0.0,88,0.00,,,0.00,WeatherCatV1.20B785,2013-07-24 06:41:00,
2013-07-24 01:46:00,59.8,56.2,29.97,East,84,0.0,0.0,88,0.00,,,0.00,WeatherCatV1.20B785,2013-07-24 06:46:00,
2013-07-24 01:51:00,59.7,56.5,29.97,East,84,0.0,0.0,89,0.00,,,0.00,WeatherCatV1.20B785,2013-07-24 06:51:00,
2013-07-24 01:56:00,59.5,56.6,29.97,East,84,0.0,0.0,90,0.00,,,0.00,WeatherCatV1.20B785,2013-07-24 06:56:00,
2013-07-24 02:01:00,59.3,56.4,29.97,East,84,0.0,0.0,90,0.00,,,0.00,WeatherCatV1.20B785,2013-07-24 07:01:00,
2013-07-24 02:06:00,59.2,56.3,29.97,East,84,0.0,0.0,90,0.00,,,0.00,WeatherCatV1.20B785,2013-07-24 07:06:00,
2013-07-24 02:11:00,59.0,56.1,29.97,East,84,0.0,0.0,90,0.00,,,0.00,WeatherCatV1.20B785,2013-07-24 07:11:00,
2013-07-24 02:16:00,58.8,55.9,29.97,East,84,0.0,0.0,90,0.00,,,0.00,WeatherCatV1.20B785,2013-07-24 07:16:00,
2013-07-24 02:21:00,58.6,55.7,29.96,East,84,0.0,0.0,90,0.00,,,0.00,WeatherCatV1.20B785,2013-07-24 07:21:00,
2013-07-24 02:26:00,58.4,55.8,29.96,East,84,0.0,0.0,91,0.00,,,0.00,WeatherCatV1.20B785,2013-07-24 07:26:00,
2013-07-24 02:31:00,58.3,55.7,29.97,East,84,0.0,0.0,91,0.00,,,0.00,WeatherCatV1.20B785,2013-07-24 07:31:00,
2013-07-24 02:36:00,58.2,55.9,29.97,East,84,0.0,0.0,92,0.00,,,0.00,WeatherCatV1.20B785,2013-07-24 07:36:00,
2013-07-24 02:41:00,58.1,55.8,29.97,East,84,0.0,0.0,92,0.00,,,0.00,WeatherCatV1.20B785,2013-07-24 07:41:00,
2013-07-24 02:46:00,58.0,55.7,29.97,East,84,0.0,0.0,92,0.00,,,0.00,WeatherCatV1.20B785,2013-07-24 07:46:00,
2013-07-24 02:51:00,57.9,55.6,29.97,East,84,0.0,0.0,92,0.00,,,0.00,WeatherCatV1.20B785,2013-07-24 07:51:00,
2013-07-24 02:55:00,57.9,55.9,29.97,East,84,0.0,0.0,93,0.00,,,0.00,WeatherCatV1.20B785,2013-07-24 07:55:00,
2013-07-24 03:00:00,57.9,55.6,29.97,East,84,0.0,0.0,92,0.00,,,0.00,WeatherCatV1.20B785,2013-07-24 08:00:00,
2013-07-24 03:05:00,57.8,55.8,29.98,East,84,0.0,0.0,93,0.00,,,0.00,WeatherCatV1.20B785,2013-07-24 08:05:00,
2013-07-24 03:10:00,57.8,55.8,29.98,East,84,0.0,0.0,93,0.00,,,0.00,WeatherCatV1.20B785,2013-07-24 08:10:00,
2013-07-24 03:15:00,57.8,55.8,29.97,East,84,0.0,0.0,93,0.00,,,0.00,WeatherCatV1.20B785,2013-07-24 08:15:00,
2013-07-24 03:20:00,57.8,55.8,29.97,East,84,0.0,0.0,93,0.00,,,0.00,WeatherCatV1.20B785,2013-07-24 08:20:00,
2013-07-24 03:25:00,57.8,55.8,29.98,East,84,0.0,0.0,93,0.00,,,0.00,WeatherCatV1.20B785,2013-07-24 08:25:00,
2013-07-24 03:30:00,57.8,55.8,29.98,East,84,0.0,0.0,93,0.00,,,0.00,WeatherCatV1.20B785,2013-07-24 08:30:00,
2013-07-24 03:35:00,57.7,56.0,29.98,East,84,0.0,0.0,94,0.00,,,0.00,WeatherCatV1.20B785,2013-07-24 08:35:00,
2013-07-24 03:40:00,57.7,56.0,29.98,East,84,0.0,0.0,94,0.00,,,0.00,WeatherCatV1.20B785,2013-07-24 08:40:00,
2013-07-24 03:45:00,57.7,56.0,29.98,East,84,0.0,0.0,94,0.00,,,0.00,WeatherCatV1.20B785,2013-07-24 08:45:00,
2013-07-24 03:50:00,57.6,55.9,29.98,East,84,0.0,0.0,94,0.00,,,0.00,WeatherCatV1.20B785,2013-07-24 08:50:00,
2013-07-24 03:55:00,57.4,55.7,29.98,East,84,0.0,0.0,94,0.00,,,0.00,WeatherCatV1.20B785,2013-07-24 08:55:00,
2013-07-24 04:00:00,57.3,55.6,29.98,East,84,0.0,0.0,94,0.00,,,0.00,WeatherCatV1.20B785,2013-07-24 09:00:00,
2013-07-24 04:05:00,57.2,55.5,29.98,East,84,0.0,0.0,94,0.00,,,0.00,WeatherCatV1.20B785,2013-07-24 09:05:00,
2013-07-24 04:10:00,57.1,55.4,29.98,East,84,0.0,0.0,94,0.00,,,0.00,WeatherCatV1.20B785,2013-07-24 09:10:00,
2013-07-24 04:15:00,57.0,55.3,29.98,East,84,0.0,0.0,94,0.00,,,0.00,WeatherCatV1.20B785,2013-07-24 09:15:00,
2013-07-24 04:20:00,56.9,55.5,29.98,East,84,0.0,0.0,95,0.00,,,0.00,WeatherCatV1.20B785,2013-07-24 09:20:00,
2013-07-24 04:25:00,56.8,55.4,29.99,East,84,0.0,0.0,95,0.00,,,0.00,WeatherCatV1.20B785,2013-07-24 09:25:00,
2013-07-24 04:30:00,56.8,55.4,29.99,East,84,0.0,0.0,95,0.00,,,0.00,WeatherCatV1.20B785,2013-07-24 09:30:00,
2013-07-24 04:35:00,56.8,55.4,29.99,East,84,0.0,0.0,95,0.00,,,0.00,WeatherCatV1.20B785,2013-07-24 09:35:00,
2013-07-24 04:40:00,56.7,55.3,29.99,East,84,0.0,0.0,95,0.00,,,0.00,WeatherCatV1.20B785,2013-07-24 09:40:00,
2013-07-24 04:45:00,56.6,55.2,29.99,East,84,0.0,0.0,95,0.00,,,0.00,WeatherCatV1.20B785,2013-07-24 09:45:00,
2013-07-24 04:50:00,56.5,55.1,29.99,East,84,0.0,0.0,95,0.00,,,0.00,WeatherCatV1.20B785,2013-07-24 09:50:00,
2013-07-24 04:55:00,56.4,55.0,30.00,East,84,0.0,0.0,95,0.00,,,0.00,WeatherCatV1.20B785,2013-07-24 09:55:00,
2013-07-24 05:00:00,56.3,54.9,29.99,East,84,0.0,0.0,95,0.00,,,0.00,WeatherCatV1.20B785,2013-07-24 10:00:00,
2013-07-24 05:05:00,56.4,55.3,30.00,East,84,0.0,0.0,96,0.00,,,0.00,WeatherCatV1.20B785,2013-07-24 10:05:00,
2013-07-24 05:10:00,56.4,55.3,30.00,East,84,0.0,0.0,96,0.00,,,0.00,WeatherCatV1.20B785,2013-07-24 10:10:00,
2013-07-24 05:15:00,56.3,55.2,30.00,East,84,0.0,0.0,96,0.00,,,0.00,WeatherCatV1.20B785,2013-07-24 10:15:00,
2013-07-24 05:20:00,56.3,55.2,30.00,East,84,0.0,0.0,96,0.00,,,0.00,WeatherCatV1.20B785,2013-07-24 10:20:00,
2013-07-24 05:25:00,56.2,55.1,30.00,East,84,0.0,0.0,96,0.00,,,0.00,WeatherCatV1.20B785,2013-07-24 10:25:00,
2013-07-24 05:30:00,56.2,55.1,30.00,East,84,0.0,0.0,96,0.00,,,0.00,WeatherCatV1.20B785,2013-07-24 10:30:00,
2013-07-24 05:35:00,56.2,55.1,30.00,East,85,0.0,0.0,96,0.00,,,0.00,WeatherCatV1.20B785,2013-07-24 10:35:00,
2013-07-24 05:40:00,56.1,55.0,30.00,East,85,0.0,0.0,96,0.00,,,0.00,WeatherCatV1.20B785,2013-07-24 10:40:00,
2013-07-24 05:45:00,56.1,55.3,30.00,East,85,0.0,0.0,97,0.00,,,0.00,WeatherCatV1.20B785,2013-07-24 10:45:00,
2013-07-24 05:50:00,56.3,55.5,30.00,East,85,0.0,0.0,97,0.00,,,0.00,WeatherCatV1.20B785,2013-07-24 10:50:00,
2013-07-24 05:55:00,56.5,55.7,30.00,East,85,0.0,0.0,97,0.00,,,0.00,WeatherCatV1.20B785,2013-07-24 10:55:00,
2013-07-24 06:00:00,56.7,55.9,30.00,East,85,0.0,0.0,97,0.00,,,0.00,WeatherCatV1.20B785,2013-07-24 11:00:00,
2013-07-24 06:05:00,56.8,56.0,30.00,East,85,0.0,0.0,97,0.00,,,0.00,WeatherCatV1.20B785,2013-07-24 11:05:00,
2013-07-24 06:10:00,56.7,55.9,30.00,East,85,0.0,0.0,97,0.00,,,0.00,WeatherCatV1.20B785,2013-07-24 11:10:00,
2013-07-24 06:15:00,56.7,55.6,30.00,East,85,0.0,0.0,96,0.00,,,0.00,WeatherCatV1.20B785,2013-07-24 11:15:00,
2013-07-24 06:20:00,56.6,55.5,30.01,East,85,0.0,0.0,96,0.00,,,0.00,WeatherCatV1.20B785,2013-07-24 11:20:00,
2013-07-24 06:25:00,56.6,55.8,30.01,East,85,0.0,0.0,97,0.00,,,0.00,WeatherCatV1.20B785,2013-07-24 11:25:00,
2013-07-24 06:30:00,56.6,55.8,30.01,East,85,0.0,0.0,97,0.00,,,0.00,WeatherCatV1.20B785,2013-07-24 11:30:00,
2013-07-24 06:35:00,56.8,56.0,30.01,East,85,0.0,0.0,97,0.00,,,0.00,WeatherCatV1.20B785,2013-07-24 11:35:00,
2013-07-24 06:40:00,57.1,56.2,30.01,East,85,0.0,0.0,97,0.00,,,0.00,WeatherCatV1.20B785,2013-07-24 11:40:00,
2013-07-24 06:45:00,57.2,56.3,30.01,East,85,0.0,0.0,97,0.00,,,0.00,WeatherCatV1.20B785,2013-07-24 11:45:00,
2013-07-24 06:50:00,57.2,56.3,30.01,East,85,0.0,0.0,97,0.00,,,0.00,WeatherCatV1.20B785,2013-07-24 11:50:00,
2013-07-24 06:55:00,57.3,56.5,30.01,East,85,0.0,0.0,97,0.00,,,0.00,WeatherCatV1.20B785,2013-07-24 11:55:00,
2013-07-24 07:00:00,57.6,56.8,30.01,East,85,0.0,0.0,97,0.00,,,0.00,WeatherCatV1.20B785,2013-07-24 12:00:00,
2013-07-24 07:05:00,57.9,57.0,30.01,East,85,0.0,0.0,97,0.00,,,0.00,WeatherCatV1.20B785,2013-07-24 12:05:00,
2013-07-24 07:10:00,58.2,57.3,30.02,ENE,60,0.0,0.0,97,0.00,,,0.00,WeatherCatV1.20B785,2013-07-24 12:10:00,
2013-07-24 07:15:00,58.6,57.8,30.02,ENE,60,0.0,0.0,97,0.00,,,0.00,WeatherCatV1.20B785,2013-07-24 12:15:00,
2013-07-24 07:20:00,58.9,57.8,30.02,ENE,60,0.0,0.0,96,0.00,,,0.00,WeatherCatV1.20B785,2013-07-24 12:20:00,
2013-07-24 07:25:00,59.4,58.0,30.02,ENE,60,0.0,2.0,95,0.00,,,0.00,WeatherCatV1.20B785,2013-07-24 12:25:00,
2013-07-24 07:30:00,59.9,58.2,30.02,ENE,60,0.0,1.0,94,0.00,,,0.00,WeatherCatV1.20B785,2013-07-24 12:30:00,
2013-07-24 07:35:00,60.4,58.1,30.02,ENE,60,0.0,0.0,92,0.00,,,0.00,WeatherCatV1.20B785,2013-07-24 12:35:00,
2013-07-24 07:40:00,60.8,58.2,30.02,ENE,60,0.0,0.0,91,0.00,,,0.00,WeatherCatV1.20B785,2013-07-24 12:40:00,
2013-07-24 07:45:00,61.1,58.1,30.02,ENE,60,0.0,0.0,90,0.00,,,0.00,WeatherCatV1.20B785,2013-07-24 12:45:00,
2013-07-24 07:50:00,61.4,58.1,30.01,ENE,60,0.0,0.0,89,0.00,,,0.00,WeatherCatV1.20B785,2013-07-24 12:50:00,
2013-07-24 07:55:00,61.8,58.5,30.01,ENE,60,0.0,0.0,89,0.00,,,0.00,WeatherCatV1.20B785,2013-07-24 12:55:00,
2013-07-24 08:00:00,62.4,58.2,30.01,ENE,60,0.0,1.0,86,0.00,,,0.00,WeatherCatV1.20B785,2013-07-24 13:00:00,
2013-07-24 08:05:00,63.0,58.4,30.01,ENE,60,0.0,1.0,85,0.00,,,0.00,WeatherCatV1.20B785,2013-07-24 13:05:00,
2013-07-24 08:10:00,63.5,58.9,30.02,ENE,60,0.0,0.0,85,0.00,,,0.00,WeatherCatV1.20B785,2013-07-24 13:10:00,
2013-07-24 08:15:00,64.3,59.0,30.02,ENE,60,0.0,0.0,83,0.00,,,0.00,WeatherCatV1.20B785,2013-07-24 13:15:00,
2013-07-24 08:20:00,65.0,59.0,30.02,ENE,60,0.0,0.0,81,0.00,,,0.00,WeatherCatV1.20B785,2013-07-24 13:20:00,
2013-07-24 08:25:00,65.8,58.7,30.02,ENE,60,0.0,1.0,78,0.00,,,0.00,WeatherCatV1.20B785,2013-07-24 13:25:00,
2013-07-24 08:30:00,66.3,58.5,30.02,ENE,60,0.0,1.0,76,0.00,,,0.00,WeatherCatV1.20B785,2013-07-24 13:30:00,
2013-07-24 08:35:00,66.9,58.7,30.02,ENE,60,0.0,0.0,75,0.00,,,0.00,WeatherCatV1.20B785,2013-07-24 13:35:00,
2013-07-24 08:40:00,67.5,59.3,30.03,ENE,60,0.0,0.0,75,0.00,,,0.00,WeatherCatV1.20B785,2013-07-24 13:40:00,
2013-07-24 08:45:00,68.3,59.7,30.03,ENE,60,0.0,0.0,74,0.00,,,0.00,WeatherCatV1.20B785,2013-07-24 13:45:00,
2013-07-24 08:50:00,68.7,58.9,30.03,NE,55,0.0,1.0,71,0.00,,,0.00,WeatherCatV1.20B785,2013-07-24 13:50:00,
2013-07-24 08:55:00,69.2,59.8,30.03,NE,55,0.0,0.0,72,0.00,,,0.00,WeatherCatV1.20B785,2013-07-24 13:55:00,
2013-07-24 09:00:00,69.7,59.9,30.03,NE,55,0.0,0.0,71,0.00,,,0.00,WeatherCatV1.20B785,2013-07-24 14:00:00,
2013-07-24 09:05:00,69.9,58.8,30.03,NE,55,1.0,2.0,68,0.00,,,0.00,WeatherCatV1.20B785,2013-07-24 14:05:00,
2013-07-24 09:10:00,70.0,59.3,30.03,ENE,61,0.0,2.0,69,0.00,,,0.00,WeatherCatV1.20B785,2013-07-24 14:10:00,
2013-07-24 09:15:00,70.4,60.1,30.03,East,81,1.0,2.0,70,0.00,,,0.00,WeatherCatV1.20B785,2013-07-24 14:15:00,
2013-07-24 09:20:00,70.9,59.4,30.03,SE,133,0.0,3.0,67,0.00,,,0.00,WeatherCatV1.20B785,2013-07-24 14:20:00,
2013-07-24 09:25:00,71.3,58.9,30.03,SE,133,0.0,1.0,65,0.00,,,0.00,WeatherCatV1.20B785,2013-07-24 14:25:00,
2013-07-24 09:30:00,71.5,58.7,30.03,NW,311,2.0,3.0,64,0.00,,,0.00,WeatherCatV1.20B785,2013-07-24 14:30:00,
2013-07-24 09:35:00,71.5,58.7,30.03,NW,311,0.0,2.0,64,0.00,,,0.00,WeatherCatV1.20B785,2013-07-24 14:35:00,
2013-07-24 09:40:00,71.6,58.8,30.03,NW,311,0.0,3.0,64,0.00,,,0.00,WeatherCatV1.20B785,2013-07-24 14:40:00,
2013-07-24 09:45:00,71.7,59.7,30.03,West,272,1.0,3.0,66,0.00,,,0.00,WeatherCatV1.20B785,2013-07-24 14:45:00,
2013-07-24 09:50:00,71.8,59.8,30.03,West,272,2.0,2.0,66,0.00,,,0.00,WeatherCatV1.20B785,2013-07-24 14:50:00,
2013-07-24 09:55:00,72.1,59.7,30.02,West,279,0.0,1.0,65,0.00,,,0.00,WeatherCatV1.20B785,2013-07-24 14:55:00,
2013-07-24 10:00:00,72.6,61.0,30.02,West,279,1.0,2.0,67,0.00,,,0.00,WeatherCatV1.20B785,2013-07-24 15:00:00,
2013-07-24 10:05:00,72.8,59.9,30.02,WNW,284,1.0,4.0,64,0.00,,,0.00,WeatherCatV1.20B785,2013-07-24 15:05:00,
2013-07-24 10:10:00,72.6,60.1,30.02,WNW,294,2.0,3.0,65,0.00,,,0.00,WeatherCatV1.20B785,2013-07-24 15:10:00,
2013-07-24 10:15:00,72.5,60.0,30.02,West,278,1.0,5.0,65,0.00,,,0.00,WeatherCatV1.20B785,2013-07-24 15:15:00,
2013-07-24 10:20:00,72.5,61.3,30.02,WNW,299,0.0,1.0,68,0.00,,,0.00,WeatherCatV1.20B785,2013-07-24 15:20:00,
2013-07-24 10:25:00,73.1,60.6,30.02,WNW,299,1.0,2.0,65,0.00,,,0.00,WeatherCatV1.20B785,2013-07-24 15:25:00,
2013-07-24 10:30:00,73.4,60.9,30.02,WSW,249,1.0,2.0,65,0.00,,,0.00,WeatherCatV1.20B785,2013-07-24 15:30:00,
2013-07-24 10:35:00,73.5,60.6,30.02,West,266,1.0,4.0,64,0.00,,,0.00,WeatherCatV1.20B785,2013-07-24 15:35:00,
2013-07-24 10:40:00,73.8,60.4,30.01,West,266,0.0,2.0,63,0.00,,,0.00,WeatherCatV1.20B785,2013-07-24 15:40:00,
2013-07-24 10:45:00,74.3,60.9,30.02,West,268,0.0,4.0,63,0.00,,,0.00,WeatherCatV1.20B785,2013-07-24 15:45:00,
2013-07-24 10:50:00,74.5,61.1,30.02,West,270,1.0,3.0,63,0.00,,,0.00,WeatherCatV1.20B785,2013-07-24 15:50:00,
2013-07-24 10:55:00,75.1,61.2,30.01,North,351,1.0,4.0,62,0.00,,,0.00,WeatherCatV1.20B785,2013-07-24 15:55:00,
2013-07-24 11:00:00,75.6,62.1,30.01,SSW,211,1.0,2.0,63,0.00,,,0.00,WeatherCatV1.20B785,2013-07-24 16:00:00,
2013-07-24 11:05:00,76.0,62.0,30.02,SSE,167,0.0,2.0,62,0.00,,,0.00,WeatherCatV1.20B785,2013-07-24 16:05:00,
2013-07-24 11:10:00,76.0,61.6,30.01,SSE,167,0.0,0.0,61,0.00,,,0.00,WeatherCatV1.20B785,2013-07-24 16:10:00,
2013-07-24 11:15:00,75.8,60.9,30.02,West,264,1.0,3.0,60,0.00,,,0.00,WeatherCatV1.20B785,2013-07-24 16:15:00,
2013-07-24 11:20:00,75.7,61.3,30.01,WNW,303,2.0,4.0,61,0.00,,,0.00,WeatherCatV1.20B785,2013-07-24 16:20:00,
2013-07-24 11:25:00,75.2,59.9,30.01,WNW,287,0.0,3.0,59,0.00,,,0.00,WeatherCatV1.20B785,2013-07-24 16:25:00,
2013-07-24 11:30:00,75.0,60.6,30.01,WNW,288,0.0,1.0,61,0.00,,,0.00,WeatherCatV1.20B785,2013-07-24 16:30:00,
2013-07-24 11:35:00,75.7,61.3,30.01,West,262,1.0,2.0,61,0.00,,,0.00,WeatherCatV1.20B785,2013-07-24 16:35:00,
2013-07-24 11:40:00,75.6,60.2,30.01,NW,307,1.0,4.0,59,0.00,,,0.00,WeatherCatV1.20B785,2013-07-24 16:40:00,
2013-07-24 11:45:00,75.9,61.0,30.01,NW,305,1.0,2.0,60,0.00,,,0.00,WeatherCatV1.20B785,2013-07-24 16:45:00,
2013-07-24 11:50:00,76.5,61.1,30.02,NW,313,3.0,3.0,59,0.00,,,0.00,WeatherCatV1.20B785,2013-07-24 16:50:00,
2013-07-24 11:55:00,76.8,61.8,30.02,South,180,1.0,4.0,60,0.00,,,0.00,WeatherCatV1.20B785,2013-07-24 16:55:00,
2013-07-24 12:00:00,76.7,60.8,30.01,SSW,205,0.0,1.0,58,0.00,,,0.00,WeatherCatV1.20B785,2013-07-24 17:00:00,
2013-07-24 12:05:00,77.0,61.5,30.01,South,172,0.0,3.0,59,0.00,,,0.00,WeatherCatV1.20B785,2013-07-24 17:05:00,
2013-07-24 12:10:00,77.3,61.3,30.01,SSE,147,0.0,3.0,58,0.00,,,0.00,WeatherCatV1.20B785,2013-07-24 17:10:00,
2013-07-24 12:15:00,77.7,60.2,30.01,SSE,147,0.0,2.0,55,0.00,,,0.00,WeatherCatV1.20B785,2013-07-24 17:15:00,
2013-07-24 12:20:00,78.0,61.0,30.01,WNW,282,3.0,3.0,56,0.00,,,0.00,WeatherCatV1.20B785,2013-07-24 17:20:00,
2013-07-24 12:25:00,77.8,61.3,30.01,WNW,283,1.0,2.0,57,0.00,,,0.00,WeatherCatV1.20B785,2013-07-24 17:25:00,
2013-07-24 12:30:00,77.6,60.1,30.01,WNW,292,3.0,4.0,55,0.00,,,0.00,WeatherCatV1.20B785,2013-07-24 17:30:00,
2013-07-24 12:35:00,77.6,61.6,30.01,WNW,301,2.0,3.0,58,0.00,,,0.00,WeatherCatV1.20B785,2013-07-24 17:35:00,
2013-07-24 12:40:00,77.7,60.7,30.01,NNW,341,1.0,1.0,56,0.00,,,0.00,WeatherCatV1.20B785,2013-07-24 17:40:00,
2013-07-24 12:45:00,77.9,61.9,30.01,NNW,332,1.0,2.0,58,0.00,,,0.00,WeatherCatV1.20B785,2013-07-24 17:45:00,
2013-07-24 12:50:00,78.4,62.4,30.01,SE,137,0.0,2.0,58,0.00,,,0.00,WeatherCatV1.20B785,2013-07-24 17:50:00,
2013-07-24 12:55:00,78.8,60.7,30.00,SE,141,1.0,1.0,54,0.00,,,0.00,WeatherCatV1.20B785,2013-07-24 17:55:00,
2013-07-24 13:00:00,79.0,61.4,30.00,SW,219,1.0,3.0,55,0.00,,,0.00,WeatherCatV1.20B785,2013-07-24 18:00:00,
2013-07-24 13:05:00,78.6,62.6,30.00,West,266,3.0,4.0,58,0.00,,,0.00,WeatherCatV1.20B785,2013-07-24 18:05:00,
2013-07-24 13:10:00,78.5,62.0,30.00,WSW,249,1.0,3.0,57,0.00,,,0.00,WeatherCatV1.20B785,2013-07-24 18:10:00,
2013-07-24 13:15:00,78.4,61.9,30.00,ESE,110,0.0,2.0,57,0.00,,,0.00,WeatherCatV1.20B785,2013-07-24 18:15:00,
2013-07-24 13:20:00,78.8,62.3,30.00,ESE,110,2.0,2.0,57,0.00,,,0.00,WeatherCatV1.20B785,2013-07-24 18:20:00,
2013-07-24 13:25:00,79.1,61.5,30.00,WNW,291,1.0,5.0,55,0.00,,,0.00,WeatherCatV1.20B785,2013-07-24 18:25:00,
2013-07-24 13:30:00,78.8,60.7,29.99,WSW,244,0.0,2.0,54,0.00,,,0.00,WeatherCatV1.20B785,2013-07-24 18:30:00,
2013-07-24 13:35:00,79.1,61.0,29.99,WSW,247,4.0,6.0,54,0.00,,,0.00,WeatherCatV1.20B785,2013-07-24 18:35:00,
2013-07-24 13:40:00,79.3,61.7,29.99,NNW,328,0.0,2.0,55,0.00,,,0.00,WeatherCatV1.20B785,2013-07-24 18:40:00,
2013-07-24 13:45:00,79.1,60.5,29.99,NNW,332,2.0,5.0,53,0.00,,,0.00,WeatherCatV1.20B785,2013-07-24 18:45:00,
2013-07-24 13:50:00,78.7,62.2,29.99,NNW,341,1.0,3.0,57,0.00,,,0.00,WeatherCatV1.20B785,2013-07-24 18:50:00,
2013-07-24 13:55:00,79.1,61.0,29.99,WNW,286,2.0,5.0,54,0.00,,,0.00,WeatherCatV1.20B785,2013-07-24 18:55:00,
2013-07-24 14:00:00,78.9,61.8,29.99,WNW,297,1.0,3.0,56,0.00,,,0.00,WeatherCatV1.20B785,2013-07-24 19:00:00,
2013-07-24 14:05:00,79.3,61.7,29.98,WNW,297,3.0,3.0,55,0.00,,,0.00,WeatherCatV1.20B785,2013-07-24 19:05:00,
2013-07-24 14:10:00,79.8,61.1,29.98,West,274,1.0,4.0,53,0.00,,,0.00,WeatherCatV1.20B785,2013-07-24 19:10:00,
2013-07-24 14:15:00,80.2,61.0,29.98,West,271,0.0,2.0,52,0.00,,,0.00,WeatherCatV1.20B785,2013-07-24 19:15:00,
2013-07-24 14:20:00,80.7,62.0,29.98,West,273,1.0,5.0,53,0.00,,,0.00,WeatherCatV1.20B785,2013-07-24 19:20:00,
2013-07-24 14:25:00,80.5,61.8,29.98,WNW,284,0.0,4.0,53,0.00,,,0.00,WeatherCatV1.20B785,2013-07-24 19:25:00,
2013-07-24 14:30:00,80.7,62.0,29.98,NNW,336,0.0,1.0,53,0.00,,,0.00,WeatherCatV1.20B785,2013-07-24 19:30:00,
2013-07-24 14:35:00,81.1,61.2,29.98,WSW,243,2.0,4.0,51,0.00,,,0.00,WeatherCatV1.20B785,2013-07-24 19:35:00,
2013-07-24 14:40:00,81.0,63.3,29.97,NW,307,0.0,1.0,55,0.00,,,0.00,WeatherCatV1.20B785,2013-07-24 19:40:00,
2013-07-24 14:45:00,81.3,60.9,29.98,West,265,3.0,5.0,50,0.00,,,0.00,WeatherCatV1.20B785,2013-07-24 19:45:00,
2013-07-24 14:50:00,80.4,60.6,29.97,West,268,0.0,3.0,51,0.00,,,0.00,WeatherCatV1.20B785,2013-07-24 19:50:00,
2013-07-24 14:55:00,79.7,61.0,29.97,West,274,0.0,1.0,53,0.00,,,0.00,WeatherCatV1.20B785,2013-07-24 19:55:00,
2013-07-24 15:00:00,80.0,61.8,29.97,NW,311,1.0,2.0,54,0.00,,,0.00,WeatherCatV1.20B785,2013-07-24 20:00:00,
2013-07-24 15:05:00,80.6,60.8,29.97,NW,324,5.0,8.0,51,0.00,,,0.00,WeatherCatV1.20B785,2013-07-24 20:05:00,
2013-07-24 15:10:00,80.8,61.5,29.97,NW,305,2.0,3.0,52,0.00,,,0.00,WeatherCatV1.20B785,2013-07-24 20:10:00,
2013-07-24 15:15:00,81.1,61.8,29.97,West,272,1.0,4.0,52,0.00,,,0.00,WeatherCatV1.20B785,2013-07-24 20:15:00,
2013-07-24 15:20:00,80.7,60.3,29.97,NW,309,0.0,1.0,50,0.00,,,0.00,WeatherCatV1.20B785,2013-07-24 20:20:00,
2013-07-24 15:25:00,80.8,62.0,29.97,WNW,301,0.0,2.0,53,0.00,,,0.00,WeatherCatV1.20B785,2013-07-24 20:25:00,
2013-07-24 15:30:00,81.5,62.2,29.96,South,187,1.0,2.0,52,0.00,,,0.00,WeatherCatV1.20B785,2013-07-24 20:30:00,
2013-07-24 15:35:00,81.9,62.5,29.96,SE,138,2.0,2.0,52,0.00,,,0.00,WeatherCatV1.20B785,2013-07-24 20:35:00,
2013-07-24 15:40:00,81.8,61.9,29.96,WNW,287,1.0,4.0,51,0.00,,,0.00,WeatherCatV1.20B785,2013-07-24 20:40:00,
2013-07-24 15:45:00,82.0,62.6,29.96,NW,314,1.0,3.0,52,0.00,,,0.00,WeatherCatV1.20B785,2013-07-24 20:45:00,
2013-07-24 15:50:00,81.9,62.0,29.96,NNW,332,2.0,4.0,51,0.00,,,0.00,WeatherCatV1.20B785,2013-07-24 20:50:00,
2013-07-24 15:55:00,81.8,61.9,29.96,NNW,344,2.0,2.0,51,0.00,,,0.00,WeatherCatV1.20B785,2013-07-24 20:55:00,
2013-07-24 16:00:00,82.1,62.7,29.95,NW,309,3.0,6.0,52,0.00,,,0.00,WeatherCatV1.20B785,2013-07-24 21:00:00,
2013-07-24 16:05:00,82.4,62.4,29.95,WNW,289,2.0,4.0,51,0.00,,,0.00,WeatherCatV1.20B785,2013-07-24 21:05:00,
2013-07-24 16:10:00,82.8,63.3,29.95,SSE,154,2.0,5.0,52,0.00,,,0.00,WeatherCatV1.20B785,2013-07-24 21:10:00,
2013-07-24 16:15:00,83.1,63.1,29.95,WNW,282,3.0,4.0,51,0.00,,,0.00,WeatherCatV1.20B785,2013-07-24 21:15:00,
2013-07-24 16:20:00,82.9,62.3,29.95,West,281,4.0,4.0,50,0.00,,,0.00,WeatherCatV1.20B785,2013-07-24 21:20:00,
2013-07-24 16:25:00,82.6,62.0,29.94,WNW,303,3.0,3.0,50,0.00,,,0.00,WeatherCatV1.20B785,2013-07-24 21:25:00,
2013-07-24 16:30:00,82.5,62.0,29.94,WNW,292,1.0,3.0,50,0.00,,,0.00,WeatherCatV1.20B785,2013-07-24 21:30:00,
2013-07-24 16:35:00,82.4,61.9,29.94,WNW,293,2.0,2.0,50,0.00,,,0.00,WeatherCatV1.20B785,2013-07-24 21:35:00,
2013-07-24 16:40:00,82.4,61.9,29.94,NNW,343,0.0,3.0,50,0.00,,,0.00,WeatherCatV1.20B785,2013-07-24 21:40:00,
2013-07-24 16:45:00,82.7,62.7,29.94,NNW,327,0.0,2.0,51,0.00,,,0.00,WeatherCatV1.20B785,2013-07-24 21:45:00,
2013-07-24 16:50:00,83.3,62.7,29.94,WNW,298,1.0,1.0,50,0.00,,,0.00,WeatherCatV1.20B785,2013-07-24 21:50:00,
2013-07-24 16:55:00,83.6,61.8,29.94,WNW,293,2.0,4.0,48,0.00,,,0.00,WeatherCatV1.20B785,2013-07-24 21:55:00,
2013-07-24 17:00:00,83.4,62.8,29.94,NW,317,1.0,3.0,50,0.00,,,0.00,WeatherCatV1.20B785,2013-07-24 22:00:00,
2013-07-24 17:05:00,83.1,61.9,29.94,NW,318,0.0,4.0,49,0.00,,,0.00,WeatherCatV1.20B785,2013-07-24 22:05:00,
2013-07-24 17:10:00,82.5,62.0,29.93,NW,309,2.0,4.0,50,0.00,,,0.00,WeatherCatV1.20B785,2013-07-24 22:10:00,
2013-07-24 17:15:00,82.3,61.2,29.93,NNW,342,0.0,2.0,49,0.00,,,0.00,WeatherCatV1.20B785,2013-07-24 22:15:00,
2013-07-24 17:20:00,81.6,61.7,29.93,NNW,327,0.0,3.0,51,0.00,,,0.00,WeatherCatV1.20B785,2013-07-24 22:20:00,
2013-07-24 17:25:00,81.4,62.1,29.93,NW,323,0.0,3.0,52,0.00,,,0.00,WeatherCatV1.20B785,2013-07-24 22:25:00,
2013-07-24 17:30:00,81.5,62.2,29.93,WNW,299,0.0,3.0,52,0.00,,,0.00,WeatherCatV1.20B785,2013-07-24 22:30:00,
2013-07-24 17:35:00,81.0,61.1,29.93,WNW,300,1.0,2.0,51,0.00,,,0.00,WeatherCatV1.20B785,2013-07-24 22:35:00,
2013-07-24 17:40:00,80.9,61.0,29.93,WNW,288,0.0,4.0,51,0.00,,,0.00,WeatherCatV1.20B785,2013-07-24 22:40:00,
2013-07-24 17:45:00,81.3,62.0,29.93,NW,305,0.0,3.0,52,0.00,,,0.00,WeatherCatV1.20B785,2013-07-24 22:45:00,
2013-07-24 17:50:00,81.6,61.1,29.93,NW,322,1.0,3.0,50,0.00,,,0.00,WeatherCatV1.20B785,2013-07-24 22:50:00,
2013-07-24 17:55:00,81.8,60.7,29.93,North,351,1.0,4.0,49,0.00,,,0.00,WeatherCatV1.20B785,2013-07-24 22:55:00,
2013-07-24 18:00:00,81.2,60.8,29.92,NNW,342,0.0,2.0,50,0.00,,,0.00,WeatherCatV1.20B785,2013-07-24 23:00:00,
2013-07-24 18:05:00,80.6,61.3,29.92,NNW,327,0.0,0.0,52,0.00,,,0.00,WeatherCatV1.20B785,2013-07-24 23:05:00,
2013-07-24 18:10:00,80.2,61.5,29.92,NNW,327,0.0,1.0,53,0.00,,,0.00,WeatherCatV1.20B785,2013-07-24 23:10:00,
2013-07-24 18:15:00,79.8,61.1,29.92,NNW,329,0.0,2.0,53,0.00,,,0.00,WeatherCatV1.20B785,2013-07-24 23:15:00,
2013-07-24 18:20:00,79.7,61.0,29.92,NNW,329,0.0,2.0,53,0.00,,,0.00,WeatherCatV1.20B785,2013-07-24 23:20:00,
2013-07-24 18:25:00,80.0,61.8,29.92,NNW,329,0.0,1.0,54,0.00,,,0.00,WeatherCatV1.20B785,2013-07-24 23:25:00,
2013-07-24 18:30:00,80.4,61.1,29.92,NNW,329,0.0,0.0,52,0.00,,,0.00,WeatherCatV1.20B785,2013-07-24 23:30:00,
2013-07-24 18:35:00,80.6,61.3,29.92,NNW,344,1.0,3.0,52,0.00,,,0.00,WeatherCatV1.20B785,2013-07-24 23:35:00,
2013-07-24 18:40:00,80.4,61.7,29.92,NNW,347,0.0,0.0,53,0.00,,,0.00,WeatherCatV1.20B785,2013-07-24 23:40:00,
2013-07-24 18:45:00,79.9,61.2,29.92,NW,323,3.0,3.0,53,0.00,,,0.00,WeatherCatV1.20B785,2013-07-24 23:45:00,
2013-07-24 18:50:00,79.8,61.1,29.92,NW,323,0.0,1.0,53,0.00,,,0.00,WeatherCatV1.20B785,2013-07-24 23:50:00,
2013-07-24 18:55:00,79.7,60.5,29.92,NW,324,0.0,0.0,52,0.00,,,0.00,WeatherCatV1.20B785,2013-07-24 23:55:00,
2013-07-24 19:00:00,79.7,61.0,29.92,NW,324,0.0,1.0,53,0.00,,,0.00,WeatherCatV1.20B785,2013-07-25 00:00:00,
2013-07-24 19:05:00,79.7,61.6,29.92,NW,324,0.0,0.0,54,0.00,,,0.00,WeatherCatV1.20B785,2013-07-25 00:05:00,
2013-07-24 19:10:00,79.8,61.7,29.92,NW,324,1.0,1.0,54,0.00,,,0.00,WeatherCatV1.20B785,2013-07-25 00:10:00,
2013-07-24 19:15:00,79.8,60.6,29.92,NW,324,2.0,2.0,52,0.00,,,0.00,WeatherCatV1.20B785,2013-07-25 00:15:00,
2013-07-24 19:20:00,79.8,61.1,29.92,NW,324,0.0,2.0,53,0.00,,,0.00,WeatherCatV1.20B785,2013-07-25 00:20:00,
2013-07-24 19:25:00,79.7,60.5,29.92,NW,324,0.0,2.0,52,0.00,,,0.00,WeatherCatV1.20B785,2013-07-25 00:25:00,
2013-07-24 19:30:00,79.9,60.7,29.92,NW,324,0.0,1.0,52,0.00,,,0.00,WeatherCatV1.20B785,2013-07-25 00:30:00,
2013-07-24 19:35:00,79.8,60.6,29.92,WNW,291,1.0,1.0,52,0.00,,,0.00,WeatherCatV1.20B785,2013-07-25 00:35:00,
2013-07-24 19:40:00,79.7,61.6,29.93,WNW,291,0.0,0.0,54,0.00,,,0.00,WeatherCatV1.20B785,2013-07-25 00:40:00,
2013-07-24 19:45:00,79.7,61.6,29.93,WNW,291,0.0,1.0,54,0.00,,,0.00,WeatherCatV1.20B785,2013-07-25 00:45:00,
2013-07-24 19:50:00,79.6,62.0,29.93,WNW,291,0.0,0.0,55,0.00,,,0.00,WeatherCatV1.20B785,2013-07-25 00:50:00,
2013-07-24 19:55:00,79.4,61.3,29.93,WNW,291,0.0,0.0,54,0.00,,,0.00,WeatherCatV1.20B785,2013-07-25 00:55:00,
2013-07-24 20:00:00,79.2,61.6,29.93,WNW,291,0.0,0.0,55,0.00,,,0.00,WeatherCatV1.20B785,2013-07-25 01:00:00,
2013-07-24 20:05:00,79.0,61.4,29.93,WNW,291,0.0,0.0,55,0.00,,,0.00,WeatherCatV1.20B785,2013-07-25 01:05:00,
2013-07-24 20:10:00,78.7,61.7,29.93,WNW,291,0.0,0.0,56,0.00,,,0.00,WeatherCatV1.20B785,2013-07-25 01:10:00,
2013-07-24 20:15:00,78.4,61.9,29.93,WNW,291,0.0,0.0,57,0.00,,,0.00,WeatherCatV1.20B785,2013-07-25 01:15:00,
2013-07-24 20:20:00,78.1,61.1,29.93,WNW,291,0.0,0.0,56,0.00,,,0.00,WeatherCatV1.20B785,2013-07-25 01:20:00,
2013-07-24 20:25:00,77.8,61.3,29.93,WNW,291,0.0,0.0,57,0.00,,,0.00,WeatherCatV1.20B785,2013-07-25 01:25:00,
2013-07-24 20:30:00,77.5,61.5,29.93,WNW,291,0.0,0.0,58,0.00,,,0.00,WeatherCatV1.20B785,2013-07-25 01:30:00,
2013-07-24 20:35:00,77.1,61.2,29.92,WNW,291,0.0,0.0,58,0.00,,,0.00,WeatherCatV1.20B785,2013-07-25 01:35:00,
2013-07-24 20:40:00,76.7,61.3,29.92,WNW,291,0.0,0.0,59,0.00,,,0.00,WeatherCatV1.20B785,2013-07-25 01:40:00,
2013-07-24 20:45:00,76.3,60.9,29.92,WNW,291,0.0,0.0,59,0.00,,,0.00,WeatherCatV1.20B785,2013-07-25 01:45:00,
2013-07-24 20:50:00,75.8,61.4,29.92,WNW,291,0.0,0.0,61,0.00,,,0.00,WeatherCatV1.20B785,2013-07-25 01:50:00,
2013-07-24 20:55:00,75.5,61.1,29.92,WNW,291,0.0,0.0,61,0.00,,,0.00,WeatherCatV1.20B785,2013-07-25 01:55:00,
2013-07-24 21:00:00,75.2,61.3,29.92,WNW,291,0.0,0.0,62,0.00,,,0.00,WeatherCatV1.20B785,2013-07-25 02:00:00,
2013-07-24 21:05:00,74.9,61.4,29.92,WNW,299,0.0,0.0,63,0.00,,,0.00,WeatherCatV1.20B785,2013-07-25 02:05:00,
2013-07-24 21:10:00,74.6,61.2,29.92,WNW,301,0.0,0.0,63,0.00,,,0.00,WeatherCatV1.20B785,2013-07-25 02:10:00,
2013-07-24 21:15:00,74.2,61.2,29.92,WNW,301,0.0,0.0,64,0.00,,,0.00,WeatherCatV1.20B785,2013-07-25 02:15:00,
2013-07-24 21:20:00,73.9,61.4,29.92,WNW,301,0.0,0.0,65,0.00,,,0.00,WeatherCatV1.20B785,2013-07-25 02:20:00,
2013-07-24 21:25:00,73.6,61.1,29.92,WNW,301,0.0,0.0,65,0.00,,,0.00,WeatherCatV1.20B785,2013-07-25 02:25:00,
2013-07-24 21:30:00,73.3,61.7,29.92,WNW,301,0.0,0.0,67,0.00,,,0.00,WeatherCatV1.20B785,2013-07-25 02:30:00,
2013-07-24 21:35:00,72.9,61.3,29.92,WNW,301,0.0,0.0,67,0.00,,,0.00,WeatherCatV1.20B785,2013-07-25 02:35:00,
2013-07-24 21:40:00,72.5,61.3,29.92,WNW,301,0.0,0.0,68,0.00,,,0.00,WeatherCatV1.20B785,2013-07-25 02:40:00,
2013-07-24 21:45:00,72.2,61.5,29.92,WNW,301,0.0,0.0,69,0.00,,,0.00,WeatherCatV1.20B785,2013-07-25 02:45:00,
2013-07-24 21:50:00,71.8,61.1,29.92,WNW,301,0.0,0.0,69,0.00,,,0.00,WeatherCatV1.20B785,2013-07-25 02:50:00,
2013-07-24 21:55:00,71.6,61.3,29.92,WNW,301,0.0,0.0,70,0.00,,,0.00,WeatherCatV1.20B785,2013-07-25 02:55:00,
2013-07-24 22:00:00,71.3,61.4,29.93,WNW,301,0.0,0.0,71,0.00,,,0.00,WeatherCatV1.20B785,2013-07-25 03:00:00,
2013-07-24 22:05:00,71.0,61.1,29.93,WNW,301,0.0,0.0,71,0.00,,,0.00,WeatherCatV1.20B785,2013-07-25 03:05:00,
2013-07-24 22:10:00,70.7,61.2,29.93,WNW,301,0.0,0.0,72,0.00,,,0.00,WeatherCatV1.20B785,2013-07-25 03:10:00,
2013-07-24 22:11:00,70.6,61.1,29.93,WNW,301,0.0,0.0,72,0.00,,,0.00,WeatherCatV1.20B785,2013-07-25 03:11:00,
2013-07-24 22:16:00,70.4,60.9,29.93,WNW,301,0.0,0.0,72,0.00,,,0.00,WeatherCatV1.20B785,2013-07-25 03:16:00,
2013-07-24 22:21:00,70.2,61.1,29.93,WNW,301,0.0,0.0,73,0.00,,,0.00,WeatherCatV1.20B785,2013-07-25 03:21:00,
2013-07-24 22:26:00,70.0,60.9,29.93,WNW,301,0.0,0.0,73,0.00,,,0.00,WeatherCatV1.20B785,2013-07-25 03:26:00,
2013-07-24 22:31:00,69.9,61.2,29.93,WNW,301,0.0,0.0,74,0.00,,,0.00,WeatherCatV1.20B785,2013-07-25 03:31:00,
2013-07-24 22:36:00,69.8,61.1,29.94,WNW,301,0.0,0.0,74,0.00,,,0.00,WeatherCatV1.20B785,2013-07-25 03:36:00,
2013-07-24 22:41:00,69.7,61.0,29.94,WNW,301,0.0,0.0,74,0.00,,,0.00,WeatherCatV1.20B785,2013-07-25 03:41:00,
2013-07-24 22:46:00,69.7,61.0,29.94,WNW,301,0.0,0.0,74,0.00,,,0.00,WeatherCatV1.20B785,2013-07-25 03:46:00,
2013-07-24 22:51:00,69.6,60.9,29.94,WNW,301,0.0,1.0,74,0.00,,,0.00,WeatherCatV1.20B785,2013-07-25 03:51:00,
2013-07-24 22:56:00,69.8,61.1,29.94,WNW,301,0.0,0.0,74,0.00,,,0.00,WeatherCatV1.20B785,2013-07-25 03:56:00,
2013-07-24 23:01:00,69.8,61.1,29.94,WNW,301,0.0,0.0,74,0.00,,,0.00,WeatherCatV1.20B785,2013-07-25 04:01:00,
2013-07-24 23:06:00,69.7,61.4,29.94,WNW,301,0.0,0.0,75,0.00,,,0.00,WeatherCatV1.20B785,2013-07-25 04:06:00,
2013-07-24 23:11:00,69.5,61.2,29.94,WNW,301,0.0,0.0,75,0.00,,,0.00,WeatherCatV1.20B785,2013-07-25 04:11:00,
2013-07-24 23:16:00,69.4,61.1,29.94,WNW,301,0.0,0.0,75,0.00,,,0.00,WeatherCatV1.20B785,2013-07-25 04:16:00,
2013-07-24 23:21:00,69.2,61.3,29.94,WNW,301,0.0,0.0,76,0.00,,,0.00,WeatherCatV1.20B785,2013-07-25 04:21:00,
2013-07-24 23:26:00,69.1,61.2,29.94,WNW,301,0.0,0.0,76,0.00,,,0.00,WeatherCatV1.20B785,2013-07-25 04:26:00,
2013-07-24 23:31:00,69.0,61.5,29.94,WNW,301,0.0,0.0,77,0.00,,,0.00,WeatherCatV1.20B785,2013-07-25 04:31:00,
2013-07-24 23:36:00,68.9,61.0,29.94,WNW,301,0.0,0.0,76,0.00,,,0.00,WeatherCatV1.20B785,2013-07-25 04:36:00,
2013-07-24 23:41:00,68.7,61.5,29.94,WNW,301,0.0,0.0,78,0.00,,,0.00,WeatherCatV1.20B785,2013-07-25 04:41:00,
2013-07-24 23:46:00,68.5,61.4,29.94,WNW,301,0.0,0.0,78,0.00,,,0.00,WeatherCatV1.20B785,2013-07-25 04:46:00,
2013-07-24 23:51:00,68.3,61.2,29.94,WNW,301,0.0,0.0,78,0.00,,,0.00,WeatherCatV1.20B785,2013-07-25 04:51:00,
2013-07-24 23:56:00,68.0,60.9,29.93,WNW,301,0.0,0.0,78,0.00,,,0.00,WeatherCatV1.20B785,2013-07-25 04:56:00,